Regional Weather Roundup
Issued by NWS

Home | Current Version | Previous Version | Text Only | Print | Product List | Glossary On
Versions: 1 2 3 4 5 6 7 8 9 10 11 12 13 14 15 16 17 18 19 20 21 22 23 24 25 26 27 28 29 30 31 32 33 34 35 36 37 38 39 40 41 42 43 44 45 46 47 48 49 50
000
ASUS43 KMKX 300321
RWRWI

WISCONSIN REGIONAL WEATHER ROUNDUP
NATIONAL WEATHER SERVICE MILWAUKEE/SULLIVAN WI
1000 PM CDT MON MAY 29 2017

NOTE: "FAIR" INDICATES FEW OR NO CLOUDS BELOW 12,000 FEET WITH NO
SIGNIFICANT WEATHER AND/OR OBSTRUCTIONS TO VISIBILITY.

WIZ001-002-006>008-014>016-023>028-300400-
NORTHWEST WISCONSIN

CITY           SKY/WX    TMP DP  RH WIND       PRES   REMARKS
SUPERIOR ARPT  NOT AVBL
ASHLAND        CLEAR     50  44  80 SW7       29.77R
HAYWARD        CLEAR     52  44  74 SW3       29.80R
SIREN          CLOUDY    52  45  77 CALM        N/A
CUMBERLAND     CLOUDY    50  45  81 W5        29.83S
RICE LAKE      MOCLDY    53  46  77 W5        29.85R
CHETEK         MOCLDY    53  47  80 W5        29.84R
LADYSMITH      CLOUDY    54  49  85 W10       29.83R
EAU CLAIRE     CLOUDY    55  45  68 W6        29.84R
MENOMONIE      MOCLDY    54  46  73 W3        29.86R
NEW RICHMOND   CLOUDY    53  46  76 SW6       29.85S
OSCEOLA        CLOUDY    55  47  74 SW6       29.87S
$$

WIZ003>005-009-010-017-018-300400-
NORTH CENTRAL WISCONSIN

CITY           SKY/WX    TMP DP  RH WIND       PRES   REMARKS
MANITOWISH WTR CLOUDY    51  49  92 W8        29.77R
ARBOR VITAE    CLOUDY    54  49  83 W3        29.76S
WOODRUFF       CLOUDY    54  49  83 W3        29.76S
RHINELANDER    RAIN      53  51  93 W10       29.79R FOG
EAGLE RIVER    CLOUDY    51  49  92 W8        29.76R
LAND O LAKES   CLOUDY    51  49  95 W6        29.77S
PHILLIPS       CLOUDY    51  51 100 CALM      29.79R
TOMAHAWK       CLOUDY    51  48  92 W3        29.79R
MEDFORD        CLOUDY    51  48  89 SW3       29.80S
MERRILL        CLOUDY    53  51  95 W6        29.80S
$$

WIZ029-030-035-036-043>047-300400-
CENTRAL WISCONSIN

CITY           SKY/WX    TMP DP  RH WIND       PRES   REMARKS
WAUSAU         CLOUDY    52  50  93 W7        29.79R
MOSINEE        MOCLDY    52  52 100 W8        29.82
MARSHFIELD     LGT RAIN  52  48  86 W6        29.81R
STEVENS POINT  MOCLDY    53  47  80 SW8       29.83R
WAUPACA        PTCLDY    56  49  74 SW5       29.83R
WAUTOMA        LGT RAIN  54  51  90 SW14      29.84
WISC RAPIDS    CLOUDY    54  48  80 W7        29.84R
CAMP DOUGLAS   CLOUDY    51  50  94 W5        29.85R
$$

WIZ011>013-019>022-031-037>040-048>050-300400-
NORTHEAST WISCONSIN

CITY           SKY/WX    TMP DP  RH WIND       PRES   REMARKS
ANTIGO         MOCLDY    50  49  98 W8        29.79S
SHAWANO        MOCLDY    55  49  82 W6        29.80R
OCONTO         CLOUDY    56  50  79 W9G16     29.78R
STURGEON BAY   CLOUDY    58  50  75 SW6       29.78R
GREEN BAY      TSTM      59  50  72 W12       29.80R
MANITOWOC      CLEAR     58  48  69 W7        29.81R
APPLETON       MOCLDY    57  45  62 W8        29.81R
CLINTONVILLE   CLOUDY    54  48  82 W7        29.81S
OSHKOSH        CLEAR     57  47  69 VRB7      29.83R
$$

WIZ032>034-041-042-053>061-300400-
SOUTHWEST WISCONSIN

CITY           SKY/WX    TMP DP  RH WIND       PRES   REMARKS
LA CROSSE      MOCLDY    59  50  72 W13       29.87R
SPARTA         PTCLDY    53  50  90 W5        29.87R
VIROQUA        MOCLDY    55  48  79 SW6       29.88S
BOSCOBEL       CLEAR     61  46  57 W7        29.89R
PRAIRIE DU CHI CLEAR     60  45  57 W6        29.90R
PLATTEVILLE    CLEAR     59  46  62 W8        29.91R
$$

WIZ056-057-062-063-064-067-068-300400-
SOUTH CENTRAL WISCONSIN

CITY           SKY/WX    TMP DP  RH WIND       PRES   REMARKS
REEDSBURG      PTCLDY    54  50  86 W5        29.87R
BARABOO/DELLS  MOCLDY    54  49  85 CALM      29.87R
LONE ROCK      CLEAR     59  45  59 W7        29.88R
MINERAL POINT  MOCLDY    61  45  55 W12G18    29.90R
MADISON        PTCLDY    55  53  93 SW3       29.87R
MIDDLETON      CLEAR     54  51  91 W5        29.88R
WATERTOWN      CLOUDY    54  53  98 CALM      29.86S
MONROE         CLEAR     59  46  63 W6        29.89R
JANESVILLE     MOCLDY    59  46  63 CALM      29.88R
$$

WIZ051-052-058>065-066-070>072-300400-
SOUTHEAST WISCONSIN

CITY           SKY/WX    TMP DP  RH WIND       PRES   REMARKS
MILWAUKEE      MOCLDY    59  51  75 W5        29.86F
WAUKESHA       NOT AVBL
MILWAUKEE/TIMM   N/A     54  46  76 W5        29.87R
RACINE         CLOUDY    59  46  62 NW5       29.89R
KENOSHA        CLOUDY    59  45  59 N7        29.88R
FOND DU LAC    CLEAR     56  46  69 SW7       29.84R
SHEBOYGAN      PTCLDY    55  49  80 SW9       29.83R
WEST BEND      PTCLDY    55  45  67 W6        29.86R
JUNEAU         PTCLDY    53  49  87 SW3       29.87R
$$

LSZ147-162-300400-
LAKE SUPERIOR

STATION/POSITION TIME  TEMP    WIND        PRES    WAVE
                       AIR SEA DIR/SP/G            HT/PER
                 (UTC) (F)     (DEG/KT/KT) (MB)    (FT/S)
W MID LAKE BUOY  0250   44 37  270/ 16/ 17 1005.7R   2/ 4
DEVILS ISLAND    0300   49     260/ 16/ 18 1007.1R
SAXON HARBOR     0230   56     270/  7/ 10 1007.8R
$$

LMZ867-665-643>646-300400-
LAKE MICHIGAN

STATION/POSITION TIME  TEMP    WIND        PRES    WAVE
                       AIR SEA DIR/SP/G            HT/PER
                 (UTC) (F)     (DEG/KT/KT) (MB)    (FT/S)
CHAMBERS ISLAND  0240   57     200/  6/ 11 1007.1R
N MID LAKE BUOY  0150   47 41  230/ 12/ 14 1007.6R   2/ 4
NORTHPORT PIER   0240   57     230/  4/ 10 1007.1R
KEWAUNEE LAKESHO 0254   59     240/  7/ 10 1008.5R
SHEBOYGAN LAKESH 0300   59     240/ 12/ 14 1009.7R
PORT WASHINGTON  0240   61     250/  5/  8 1011.5R
ATWATER BUOY     0209   60     220/ 16/ 23 1011.1R
MILWAUKEE LAKESH 0300   58     260/  2/  3   N/A
S MID LAKE BUOY  0250   52 48  240/  4/  4 1011.6R   1/ 4
KENOSHA   LAKESH 0300   61     320/  7/ 15 1011.5
$$

TC  - TEMPERATURE IN CELSIUS
VSB - VISIBILITY IN STATUTE MILES
WCI - WIND CHILL INDEX
HX  - HEAT INDEX




USA.gov is the U.S. government's official web portal to all federal, state and local government web resources and services.